Regional Weather Roundup
Issued by NWS Newport/Morehead, NC

Current Version | Previous Version | Text Only | Print | Product List | Glossary Off
Versions: 1 2 3 4 5 6 7 8 9 10 11 12 13 14 15 16 17 18 19 20 21 22 23 24 25 26 27 28 29 30 31 32 33 34 35 36 37 38 39 40 41 42 43 44 45 46 47 48 49 50
000 ASUS42 KMHX 241825 RWRMHX WEATHER ROUNDUP FOR EASTERN NORTH CAROLINA NATIONAL WEATHER SERVICE NEWPORT/MOREHEAD CITY NC 200 PM EDT TUE APR 24 2018 NOTE: "FAIR" INDICATES FEW OR NO CLOUDS BELOW 12,000 FEET WITH NO SIGNIFICANT WEATHER AND/OR OBSTRUCTIONS TO VISIBILITY NCZ015>017-031-032-045>047-102-103-241900- NORTH COAST CITY SKY/WX TMP DP RH WIND PRES REMARKS EDENTON LGT RAIN 62 60 93 SE13G25 30.04S ELIZABETH CITY HVY RAIN 60 59 96 E23G30 30.06F FOG KITTY HAWK RAIN 56 55 99 SE9 30.07F MANTEO CLOUDY 58 57 97 SE13 30.07F $$ NCZ045>047-081-094-103-104-241900- CENTRAL COAST CITY SKY/WX TMP DP RH WIND PRES REMARKS FRISCO LGT RAIN 65 61 87 SE26G41 30.02F $$ NCZ095-097-098-100-101-241900- SOUTHERN COAST CITY SKY/WX TMP DP RH WIND PRES REMARKS BEAUFORT LGT RAIN 62 62 100 NE8 29.93F CEDAR ISLAND NOT AVBL JACKSONVILLE CLOUDY 64 62 93 SE10 29.92F PINEY ISLAND NOT AVBL WILMINGTON CLOUDY 64 60 87 E14 29.90F $$ NCZ011>013-027>030-043-044-078>080-089-090>093-098-241900- COASTAL PLAIN CITY SKY/WX TMP DP RH WIND PRES REMARKS AHOSKIE HVY RAIN 59 59 100 E8 29.99F CLINTON CLOUDY 65 64 95 CALM 29.90S ELIZABETHTOWN LGT RAIN 68 66 94 MISG 29.88F GOLDSBORO CLOUDY 65 61 87 E15G22 29.90F GREENVILLE CLOUDY 63 61 94 E13G20 29.96F HAVELOCK CLOUDY 64 62 93 E12 29.94F KENANSVILLE CLOUDY 63 61 94 E6 29.91F KINSTON CLOUDY 63 63 100 E13 29.92F NEW BERN FAIR 61 61 100 E9 29.94F RICHLANDS CLOUDY 63 61 93 E7 29.93F ROCKY MOUNT CLOUDY 63 60 90 VRB6 29.94S WASHINGTON CLOUDY 63 62 94 SE6G16 29.95S WHITEVILLE CLOUDY 71 66 85 SE13G18 29.86F $$ AMZ130-135-150-152-154-156-158-170-250-252-270-ANZ085-086-088-633-658-670-241900- MARINE OBSERVATIONS STATION/POSITION TIME TEMP WIND PRES WAVE SWELL AIR SEA DIR/SP/G HT/PER HT/PER (UTC) (F) (DEG/KT/KT) (MB) (FT/S) (FT/S) CHESAPEAKE LIGHT NOT AVBL 64 E VA BEACH 1750 54 50 110/ 12/ 12 1021.0 9/ 8 8/ 8 DUCK 1800 56 54 100/ 20/ 23 1017.9 2 E DUCK 1800 52 N/A 7/ 9 2/11 OREGON INLET 1800 56 54 100/ 9/ 13 1017.8 13E OREGON INLT 1748 51 N/A 13/ 9 13/ 9 HATTERAS CG 1800 65 61 130/ 19/ 25 1016.0 DIAMOND BUOY 1810 67 71 130/ 29/ 37 1016.5 CAPE LOOKOUT NOT AVBL BEAUFORT LAB 1800 62 63 30/ 5/ 8 1013.8 30 SE NEW RVR IN 1808 62 65 80/ 12/ 17 1012.3 30 SE NEW RVR IN 1800 65 N/A 14/11 7/11 27 SE WRIGHTSVLE 1808 64 65 80/ 14/ 21 1012.5 5 SE WRIGHTSVLE NOT AVBL 225 S CAPE HAT 1810 71 73 130/ 29/ 37 1014.7 41 SE CHARLESTON 1810 69 210/ 12/ 16 1011.2 $$

USA.gov is the U.S. government's official web portal to all federal, state and local government web resources and services.